Time,TemperatureF,DewpointF,PressureIn,WindDirection,WindDirectionDegrees,WindSpeedMPH,WindSpeedGustMPH,Humidity,HourlyPrecipIn,Conditions,Clouds,dailyrainin,SolarRadiationWatts/m^2,SoftwareType,DateUTC
2013-04-15 00:02:00,73.0,32.0,-100.00,South,176,7.0,12.0,22,0.00,,,0.00,1.000000,,2013-04-15 05:02:00,
2013-04-15 00:33:00,74.0,33.0,-100.00,South,188,8.0,11.0,22,0.00,,,0.00,1.000000,,2013-04-15 05:33:00,
2013-04-15 00:43:00,74.0,33.0,-100.00,South,188,8.0,11.0,22,0.00,,,0.00,1.000000,,2013-04-15 05:43:00,
2013-04-15 00:53:00,74.0,33.0,-100.00,South,188,8.0,11.0,22,0.00,,,0.00,1.000000,,2013-04-15 05:53:00,
2013-04-15 01:02:00,74.0,33.0,-100.00,South,188,8.0,11.0,22,0.00,,,0.00,1.000000,,2013-04-15 06:02:00,
2013-04-15 01:34:00,75.0,36.0,-100.00,South,190,12.0,17.0,24,0.00,,,0.00,1.000000,,2013-04-15 06:34:00,
2013-04-15 01:43:00,75.0,36.0,-100.00,South,190,12.0,17.0,24,0.00,,,0.00,1.000000,,2013-04-15 06:43:00,
2013-04-15 01:52:00,75.0,36.0,-100.00,South,190,12.0,17.0,24,0.00,,,0.00,1.000000,,2013-04-15 06:52:00,
2013-04-15 02:02:00,75.0,36.0,-100.00,South,190,12.0,17.0,24,0.00,,,0.00,1.000000,,2013-04-15 07:02:00,
2013-04-15 02:43:00,75.0,42.0,-100.00,South,183,11.0,16.0,31,0.00,,,0.00,1.000000,,2013-04-15 07:43:00,
2013-04-15 02:54:00,75.0,42.0,-100.00,South,183,11.0,16.0,31,0.00,,,0.00,1.000000,,2013-04-15 07:54:00,
2013-04-15 03:02:00,75.0,42.0,-100.00,South,183,11.0,16.0,31,0.00,,,0.00,1.000000,,2013-04-15 08:02:00,
2013-04-15 03:34:00,72.0,43.0,-100.00,SSW,197,7.0,16.0,35,0.00,,,0.00,1.000000,,2013-04-15 08:34:00,
2013-04-15 03:43:00,72.0,43.0,-100.00,SSW,197,7.0,16.0,35,0.00,,,0.00,1.000000,,2013-04-15 08:43:00,
2013-04-15 03:52:00,72.0,43.0,-100.00,SSW,197,7.0,16.0,35,0.00,,,0.00,1.000000,,2013-04-15 08:52:00,
2013-04-15 04:02:00,72.0,43.0,-100.00,SSW,197,7.0,16.0,35,0.00,,,0.00,1.000000,,2013-04-15 09:02:00,
2013-04-15 04:33:00,73.0,47.0,-100.00,South,185,10.0,17.0,39,0.00,,,0.00,1.000000,,2013-04-15 09:33:00,
2013-04-15 04:43:00,73.0,47.0,-100.00,South,185,10.0,17.0,39,0.00,,,0.00,1.000000,,2013-04-15 09:43:00,
2013-04-15 04:53:00,73.0,47.0,-100.00,South,185,10.0,17.0,39,0.00,,,0.00,1.000000,,2013-04-15 09:53:00,
2013-04-15 05:02:00,73.0,47.0,-100.00,South,185,10.0,17.0,39,0.00,,,0.00,1.000000,,2013-04-15 10:02:00,
2013-04-15 05:33:00,73.0,53.0,-100.00,South,189,16.0,24.0,49,0.00,,,0.00,1.000000,,2013-04-15 10:33:00,
2013-04-15 05:42:00,73.0,53.0,-100.00,South,189,16.0,24.0,49,0.00,,,0.00,1.000000,,2013-04-15 10:42:00,
2013-04-15 05:53:00,73.0,53.0,-100.00,South,189,16.0,24.0,49,0.00,,,0.00,1.000000,,2013-04-15 10:53:00,
2013-04-15 06:03:00,73.0,53.0,-100.00,South,189,16.0,24.0,49,0.00,,,0.00,1.000000,,2013-04-15 11:03:00,
2013-04-15 06:33:00,74.0,58.0,-100.00,South,191,16.0,25.0,58,0.00,,,0.00,1.000000,,2013-04-15 11:33:00,
2013-04-15 06:43:00,74.0,58.0,-100.00,South,191,16.0,25.0,58,0.00,,,0.00,1.000000,,2013-04-15 11:43:00,
2013-04-15 06:54:00,74.0,58.0,-100.00,South,191,16.0,25.0,58,0.00,,,0.00,1.000000,,2013-04-15 11:54:00,
2013-04-15 07:04:00,74.0,58.0,-100.00,South,191,16.0,25.0,58,0.00,,,0.00,1.000000,,2013-04-15 12:04:00,
2013-04-15 07:34:00,73.0,59.0,-100.00,South,188,14.0,24.0,62,0.00,,,0.00,1.000000,,2013-04-15 12:34:00,
2013-04-15 07:43:00,73.0,59.0,-100.00,South,188,14.0,24.0,62,0.00,,,0.00,1.000000,,2013-04-15 12:43:00,
2013-04-15 07:53:00,73.0,59.0,-100.00,South,188,14.0,24.0,62,0.00,,,0.00,1.000000,,2013-04-15 12:53:00,
2013-04-15 08:04:00,73.0,59.0,-100.00,South,188,14.0,24.0,62,0.00,,,0.00,1.000000,,2013-04-15 13:04:00,
2013-04-15 08:34:00,74.0,60.0,-100.00,South,189,15.0,23.0,62,0.00,,,0.00,58.000000,,2013-04-15 13:34:00,
2013-04-15 08:43:00,74.0,60.0,-100.00,South,189,15.0,23.0,62,0.00,,,0.00,58.000000,,2013-04-15 13:43:00,
2013-04-15 08:54:00,74.0,60.0,-100.00,South,189,15.0,23.0,62,0.00,,,0.00,58.000000,,2013-04-15 13:54:00,
2013-04-15 09:05:00,74.0,60.0,-100.00,South,189,15.0,23.0,62,0.00,,,0.00,58.000000,,2013-04-15 14:05:00,
2013-04-15 09:34:00,78.0,61.0,-100.00,SW,218,8.0,24.0,56,0.00,,,0.00,243.000000,,2013-04-15 14:34:00,
2013-04-15 09:44:00,78.0,61.0,-100.00,SW,218,8.0,24.0,56,0.00,,,0.00,243.000000,,2013-04-15 14:44:00,
2013-04-15 09:55:00,78.0,61.0,-100.00,SW,218,8.0,24.0,56,0.00,,,0.00,243.000000,,2013-04-15 14:55:00,
2013-04-15 10:03:00,78.0,61.0,-100.00,SW,218,8.0,24.0,56,0.00,,,0.00,243.000000,,2013-04-15 15:03:00,
2013-04-15 10:37:00,82.0,61.0,-100.00,SSW,199,13.0,20.0,49,0.00,,,0.00,453.000000,,2013-04-15 15:37:00,
2013-04-15 10:45:00,82.0,61.0,-100.00,SSW,199,13.0,20.0,49,0.00,,,0.00,453.000000,,2013-04-15 15:45:00,
2013-04-15 10:55:00,82.0,61.0,-100.00,SSW,199,13.0,20.0,49,0.00,,,0.00,453.000000,,2013-04-15 15:55:00,
2013-04-15 11:04:00,82.0,61.0,-100.00,SSW,199,13.0,20.0,49,0.00,,,0.00,453.000000,,2013-04-15 16:04:00,
2013-04-15 11:34:00,86.0,59.0,-100.00,SSW,213,18.0,26.0,40,0.00,,,0.00,607.000000,,2013-04-15 16:34:00,
2013-04-15 11:44:00,86.0,59.0,-100.00,SSW,213,18.0,26.0,40,0.00,,,0.00,607.000000,,2013-04-15 16:44:00,
2013-04-15 11:54:00,86.0,59.0,-100.00,SSW,213,18.0,26.0,40,0.00,,,0.00,607.000000,,2013-04-15 16:54:00,
2013-04-15 12:03:00,86.0,59.0,-100.00,SSW,213,18.0,26.0,40,0.00,,,0.00,607.000000,,2013-04-15 17:03:00,
2013-04-15 12:33:00,90.0,58.0,-100.00,SSW,206,19.0,28.0,34,0.00,,,0.00,778.000000,,2013-04-15 17:33:00,
2013-04-15 12:43:00,90.0,58.0,-100.00,SSW,206,19.0,28.0,34,0.00,,,0.00,778.000000,,2013-04-15 17:43:00,
2013-04-15 12:52:00,90.0,58.0,-100.00,SSW,206,19.0,28.0,34,0.00,,,0.00,778.000000,,2013-04-15 17:52:00,
2013-04-15 13:03:00,90.0,58.0,-100.00,SSW,206,19.0,28.0,34,0.00,,,0.00,778.000000,,2013-04-15 18:03:00,
2013-04-15 13:33:00,91.0,54.0,-100.00,SW,220,19.0,30.0,29,0.00,,,0.00,862.000000,,2013-04-15 18:33:00,
2013-04-15 13:42:00,91.0,54.0,-100.00,SW,220,19.0,30.0,29,0.00,,,0.00,862.000000,,2013-04-15 18:42:00,
2013-04-15 13:52:00,91.0,54.0,-100.00,SW,220,19.0,30.0,29,0.00,,,0.00,862.000000,,2013-04-15 18:52:00,
2013-04-15 14:02:00,91.0,54.0,-100.00,SW,220,19.0,30.0,29,0.00,,,0.00,862.000000,,2013-04-15 19:02:00,
2013-04-15 15:32:00,93.0,54.0,-100.00,WSW,238,12.0,23.0,27,-99.99,,,0.00,765.000000,,2013-04-15 20:32:00,
2013-04-15 15:42:00,93.0,54.0,-100.00,WSW,238,12.0,23.0,27,-99.99,,,0.00,765.000000,,2013-04-15 20:42:00,
2013-04-15 15:52:00,93.0,54.0,-100.00,WSW,238,12.0,23.0,27,-99.99,,,0.00,765.000000,,2013-04-15 20:52:00,
2013-04-15 16:02:00,93.0,54.0,-100.00,WSW,238,12.0,23.0,27,-99.99,,,0.00,765.000000,,2013-04-15 21:02:00,
2013-04-15 16:33:00,92.0,49.0,-100.00,SW,234,14.0,23.0,23,0.00,,,0.00,562.000000,,2013-04-15 21:33:00,
2013-04-15 16:43:00,92.0,49.0,-100.00,SW,234,14.0,23.0,23,0.00,,,0.00,562.000000,,2013-04-15 21:43:00,
2013-04-15 16:53:00,92.0,49.0,-100.00,SW,234,14.0,23.0,23,0.00,,,0.00,562.000000,,2013-04-15 21:53:00,
2013-04-15 17:02:00,92.0,49.0,-100.00,SW,234,14.0,23.0,23,0.00,,,0.00,562.000000,,2013-04-15 22:02:00,
2013-04-15 17:33:00,95.0,42.0,-100.00,South,190,14.0,24.0,16,0.00,,,-99.99,451.000000,,2013-04-15 22:33:00,
2013-04-15 17:42:00,95.0,42.0,-100.00,South,190,14.0,24.0,16,0.00,,,-99.99,451.000000,,2013-04-15 22:42:00,
2013-04-15 17:52:00,95.0,42.0,-100.00,South,190,14.0,24.0,16,0.00,,,-99.99,451.000000,,2013-04-15 22:52:00,
2013-04-15 18:02:00,95.0,42.0,-100.00,South,190,14.0,24.0,16,0.00,,,-99.99,451.000000,,2013-04-15 23:02:00,
2013-04-15 20:32:00,87.0,42.0,-100.00,SSW,196,7.0,19.0,21,-99.99,,,0.00,41.000000,,2013-04-16 01:32:00,
2013-04-15 20:42:00,87.0,42.0,-100.00,SSW,196,7.0,19.0,21,-99.99,,,0.00,41.000000,,2013-04-16 01:42:00,
2013-04-15 20:52:00,87.0,42.0,-100.00,SSW,196,7.0,19.0,21,-99.99,,,0.00,41.000000,,2013-04-16 01:52:00,
2013-04-15 21:02:00,87.0,42.0,-100.00,SSW,196,7.0,19.0,21,-99.99,,,0.00,41.000000,,2013-04-16 02:02:00,
2013-04-15 21:32:00,83.0,46.0,-100.00,SSW,196,6.0,9.0,27,0.00,,,0.00,1.000000,,2013-04-16 02:32:00,
2013-04-15 21:42:00,83.0,46.0,-100.00,SSW,196,6.0,9.0,27,0.00,,,0.00,1.000000,,2013-04-16 02:42:00,
2013-04-15 21:52:00,83.0,46.0,-100.00,SSW,196,6.0,9.0,27,0.00,,,0.00,1.000000,,2013-04-16 02:52:00,
2013-04-15 22:02:00,83.0,46.0,-100.00,SSW,196,6.0,9.0,27,0.00,,,0.00,1.000000,,2013-04-16 03:02:00,
2013-04-15 22:33:00,80.0,50.0,-100.00,SE,144,8.0,10.0,35,0.00,,,0.00,1.000000,,2013-04-16 03:33:00,
2013-04-15 22:43:00,80.0,50.0,-100.00,SE,144,8.0,10.0,35,0.00,,,0.00,1.000000,,2013-04-16 03:43:00,
2013-04-15 22:53:00,80.0,50.0,-100.00,SE,144,8.0,10.0,35,0.00,,,0.00,1.000000,,2013-04-16 03:53:00,
2013-04-15 23:03:00,80.0,50.0,-100.00,SE,144,8.0,10.0,35,0.00,,,0.00,1.000000,,2013-04-16 04:03:00,
2013-04-15 23:33:00,80.0,55.0,-100.00,SSE,162,11.0,17.0,43,0.00,,,0.00,1.000000,,2013-04-16 04:33:00,
2013-04-15 23:42:00,80.0,55.0,-100.00,SSE,162,11.0,17.0,43,0.00,,,0.00,1.000000,,2013-04-16 04:42:00,
2013-04-15 23:53:00,80.0,55.0,-100.00,SSE,162,11.0,17.0,43,0.00,,,0.00,1.000000,,2013-04-16 04:53:00,